Weather History for LTAI - October, 2013

Change the Weather History Date:

Tuesday, October 8, 2013

  Actual Average Record
Temperature  
Mean Temperature 64 °F -  
Max Temperature 76 °F 77 °F 93 °F (1998)
Min Temperature 51 °F 57 °F 51 °F (2013)
Degree Days  
Heating Degree Days 2    
Growing Degree Days 14 (Base 50)    
Moisture  
Dew Point 35 °F    
Average Humidity 38    
Maximum Humidity 72    
Minimum Humidity 12    
Precipitation  
Precipitation 0.00 in 0.12 in - ()
Sea Level Pressure  
Sea Level Pressure 30.21 in    
Wind  
Wind Speed 6 mph ()    
Max Wind Speed 10 mph    
Max Gust Speed -    
Visibility 6.1 miles    
Events      
Averages and records for this station are not official NWS values.
T = Trace of Precipitation, MM = Missing Value Source: Averaged Metar Reports

Daily Weather History Graph

Daily Weather History Graph

Search for Another Location

Airport or City:

Trip Planner

Search our weather history database for the weather conditions in past years. The results will help you decide how hot, cold, wet, or windy it might be!

Date:

Astronomy

Oct. 08, 2013 Rise Set
Actual Time 6:58 AM EEST 6:30 PM EEST
Civil Twilight 6:32 AM EEST 6:55 PM EEST
Nautical Twilight 6:02 AM EEST 7:25 PM EEST
Astronomical Twilight 5:31 AM EEST 7:55 PM EEST
Moon 10:25 AM EEST (10/8) 8:54 PM EEST (10/8)
Length of Visible Light 12h 23m
Length of Day
11h 31m
Waxing Crescent, 13% of the Moon is Illuminated
Oct 8
Waxing Crescent
Oct 12
First Quarter
Oct 19
Full
Oct 27
Last Quarter
Nov 3
New

Hourly Weather History & Observations

Time (EEST) Temp. Dew Point Humidity Pressure Visibility Wind Dir Wind Speed Gust Speed Precip Events Conditions
12:20 AM 59.0 °F 30.2 °F 34% 30.21 in - NW 3.5 mph - N/A   Clear
12:50 AM 57.2 °F 32.0 °F 38% 30.21 in - North 6.9 mph - N/A   Clear
1:20 AM 55.4 °F 33.8 °F 44% 30.21 in - North 5.8 mph - N/A   Clear
1:50 AM 53.6 °F 32.0 °F 44% 30.21 in - North 9.2 mph - N/A   Clear
2:20 AM 55.4 °F 30.2 °F 38% 30.21 in - North 8.1 mph - N/A   Clear
2:50 AM 55.4 °F 30.2 °F 38% 30.21 in - NNW 5.8 mph - N/A   Clear
3:00 AM 54 °F 30 °F 27% 30.20 in 6 mi NNW 5.8 mph - -  
3:20 AM 55.4 °F 26.6 °F 33% 30.21 in - NNW 8.1 mph - N/A   Clear
3:50 AM 57.2 °F 26.6 °F 31% 30.21 in - NW 6.9 mph - N/A   Clear
4:20 AM 53.6 °F 28.4 °F 38% 30.21 in - NNW 10.4 mph - N/A   Clear
4:50 AM 55.4 °F 24.8 °F 31% 30.21 in - NNW 9.2 mph - N/A   Clear
5:20 AM 55.4 °F 24.8 °F 31% 30.21 in - North 8.1 mph - N/A   Clear
5:50 AM 53.6 °F 26.6 °F 35% 30.21 in - North 8.1 mph - N/A   Clear
6:20 AM 57.2 °F 24.8 °F 29% 30.21 in - Variable 6.9 mph - N/A   Clear
6:50 AM 51.8 °F 26.6 °F 38% 30.21 in - Variable 4.6 mph - N/A   Clear
7:20 AM 53.6 °F 26.6 °F 35% 30.21 in - Variable 2.3 mph - N/A   Clear
8:20 AM 60.8 °F 23.0 °F 23% 30.24 in - North 5.8 mph - N/A   Clear
8:50 AM 62.6 °F 24.8 °F 24% 30.24 in - North 9.2 mph - N/A   Clear
9:00 AM 63 °F 26 °F 14% 30.24 in 6 mi North 9.2 mph - -  
9:20 AM 66.2 °F 26.6 °F 23% 30.24 in - North 9.2 mph - N/A   Clear
9:50 AM 69.8 °F 24.8 °F 18% 30.24 in - North 6.9 mph - N/A   Clear
10:20 AM 69.8 °F 23.0 °F 17% 30.24 in - WNW 5.8 mph - N/A   Clear
10:50 AM 71.6 °F 24.8 °F 17% 30.24 in - West 5.8 mph - N/A   Clear
11:20 AM 73.4 °F 23.0 °F 15% 30.24 in - Variable 3.5 mph - N/A   Clear
11:50 AM 75.2 °F 19.4 °F 12% 30.24 in - NNE 4.6 mph - N/A   Clear
12:20 PM 75.2 °F 33.8 °F 22% 30.24 in - Variable 5.8 mph - N/A   Clear
12:50 PM 73.4 °F 39.2 °F 29% 30.21 in - South 9.2 mph - N/A   Clear
1:20 PM 73.4 °F 35.6 °F 25% 30.21 in - South 8.1 mph - N/A   Clear
1:50 PM 73.4 °F 33.8 °F 23% 30.21 in - South 8.1 mph - N/A   Clear
2:20 PM 73.4 °F 39.2 °F 29% 30.18 in - South 9.2 mph - N/A   Clear
2:50 PM 73.4 °F 35.6 °F 25% 30.18 in 6.2 mi South 9.2 mph - N/A   Partly Cloudy
3:00 PM 74 °F 35 °F 15% 30.18 in 6 mi South 9.2 mph - -   Scattered Clouds
3:20 PM 73.4 °F 33.8 °F 23% 30.18 in 6.2 mi SSW 6.9 mph - N/A   Partly Cloudy
3:50 PM 75.2 °F 39.2 °F 27% 30.18 in 6.2 mi South 6.9 mph - N/A   Partly Cloudy
4:20 PM 73.4 °F 39.2 °F 29% 30.18 in 6.2 mi South 9.2 mph - N/A   Partly Cloudy
4:50 PM 73.4 °F 41.0 °F 31% 30.15 in 6.2 mi South 8.1 mph - N/A   Partly Cloudy
5:20 PM 73.4 °F 44.6 °F 36% 30.15 in 6.2 mi South 5.8 mph - N/A   Partly Cloudy
5:50 PM 71.6 °F 46.4 °F 41% 30.15 in 6.2 mi South 4.6 mph - N/A   Partly Cloudy
6:20 PM 68.0 °F 50.0 °F 52% 30.18 in 6.2 mi SE 3.5 mph - N/A   Partly Cloudy
6:50 PM 66.2 °F 50.0 °F 56% 30.18 in 6.2 mi SE 3.5 mph - N/A   Partly Cloudy
7:20 PM 62.6 °F 50.0 °F 63% 30.18 in 6.2 mi SSE 2.3 mph - N/A   Partly Cloudy
7:50 PM 62.6 °F 50.0 °F 63% 30.18 in 6.2 mi Variable 1.2 mph - N/A   Partly Cloudy
8:20 PM 60.8 °F 50.0 °F 68% 30.21 in - Calm Calm - N/A   Clear
8:50 PM 60.8 °F 51.8 °F 72% 30.21 in - Variable 2.3 mph - N/A   Clear
9:00 PM 61 °F 50 °F 59% 30.20 in 6 mi NE 2.3 mph - -  
9:20 PM 60.8 °F 50.0 °F 68% 30.21 in - NNW 5.8 mph - N/A   Clear
9:50 PM 59.0 °F 50.0 °F 72% 30.21 in - North 5.8 mph - N/A   Clear
10:20 PM 59.0 °F 48.2 °F 67% 30.21 in - North 5.8 mph - N/A   Clear
10:50 PM 59.0 °F 48.2 °F 67% 30.21 in - NNW 6.9 mph - N/A   Clear
11:20 PM 57.2 °F 48.2 °F 72% 30.21 in - NNW 4.6 mph - N/A   Clear
11:50 PM 57.2 °F 46.4 °F 67% 30.21 in - North 4.6 mph - N/A   Clear